Starlink 5337

operational
NORAD ID: 55284 Int'l Des: 2023-010 Owner: SPXS Country: US Constellation: starlink
LEOCIRCULAR

About Starlink 5337

Description loading...

Live Position

Loading 3D Globe...

Upcoming Passes

Altitude History

Altitude vs Time

uPlot chart will show altitude changes over time

Two-Line Element Set

1 55284U 23010R 26036.66971551 -.00157526 00000-0 -13993-1 0 9991
2 55284 70.0006 125.0279 0008451 301.8132 58.2203 14.96890273167970
Epoch: Feb 5, 2026 • Age: 9 hours

Current Status

Altitude 592.1 km
Velocity 7.57 km/s
Sub-Earth Point 59.10°N, 121.73°E
Launch Date Jan 19, 2023
Age 3 years
Type internet

Technical Details

Classification Payload
Mass 305.00 kg
Dry Mass 290.00 kg
Total Mass 305.00 kg
Length 0.20 m
Diameter 2.80 m
Span 9.00 m
Shape Box + pan
Manufacturer SPXS
Bus Type Starlink
Phase Status In Orbit
Owner/State SPXS/US

Large Constellations

Loading constellations...